Карточка аэропорта UWLW

Внимание!
Информация на этой странице в стадии наполнения.
Если вы не увидели какой-то информации, или заметили неточность - пожалуйста сообщите нам!
Спасибо!
Команда RU-STAFF
Название аэропортаВосточный
Название аэропорта (англ.)Vostochny
Превышение252 ft. (76.8 m.)
Координаты54°24', 48°48'
Высота перехода900m
Эшелон переходаQFE>=726mm:FL050; QFE<726:FL060
Коды ответчика6725-6727
Зона ОрВДСамара РПИ (UWWW)
Данные METARUWLW 140100Z 14003MPS CAVOK 23/14 Q1011 R20/CLRD60 NOSIG RMK QFE753/1004
Проноз погоды (TAF)UWLW 132000Z 1321/1421 16003MPS 9999 SCT033 TX30/1410Z TN20/1402Z TEMPO 1321/1406 14007G14MPS -TSRA BKN030CB TEMPO 1406/1415 20008G16MPS 3100 -TSRA BKN020CB
NOTAMshow/hide NOTAM
AWOS   TABLE

Информация о ВПП

ВПП Длина ВПП (м.) Покрытие Курс ВПП Частота ILS
025000Железобетон20110.1
205000Железобетон200110.1

Диспетчерские позиции


Сценарии



Спутниковое изображение